sat.trackr.live / text

‹ back to catalog

HULIANWAN GAOGUI-01 (H*)

NORAD 59069 · 2024-040A

PAYLOAD ACTIVE UNKNOWN

§ Identity

Operator
Country
PRC
Launch date
2024-02-29
Launch site
XICLF
Launch vehicle
Mass (kg)
RCS (m²)

Purposes: comms

External: N2YO · Heavens-Above · Gunter

§ Orbital elements

Epoch: 2026-09-19T06:52:03.390240Z

Period
1,436.11 min
Inclination
0.0923°
Eccentricity
0.0001846
Mean motion
1.00270690 rev/d
Perigee alt
35,779.1 km
Apogee alt
35,794.7 km
Semi-major
42,165.0 km
B*
0.0000e+0
RAAN
338.6658°
Arg perigee
51.7380°
Mean anomaly
104.4501°
Rev number
827

§ Raw data

HULIANWAN GAOGUI-01 (H*)1 59069U 24040A   26262.28615035  .00000152  00000+0  00000+0 0  99932 59069   0.0923 338.6658 0001846  51.7380 104.4501  1.00270690  8274

JSON: /api/v1/satellites/59069 · /tle

For live sub-satellite position, see the globe view (requires WebGL).

§ Visibility from observer

Set your observer location to see the next 7 days of passes ≥ 10°. The values pass through the URL so the page stays shareable.

No JS? Fill the form by hand. The geolocation button needs JavaScript.